NERRS METEOROLOGICAL SITE AT WEEKS BAY HADS current weather conditions

sailwx.info

Wind from 336 at 2 knots gusting 11

Air temperature 6.0° C
Dewpoint 2.8° C

Last reported at 2019-Nov-12 15:45 UTC.
Time now 2019-Nov-12 17:02 UTC

Location: N 30°25' W 087°50'.
View on Google Maps.

See reports from other nearby stations

  
Tides and Currents Weather Stations Pressure Air Temp Water Temp Dewpoint Dewpoint Depression Visibility Wind Speed Wind Dir Waves Ship Positions
date/time (UTC)wind fromknots sea level pressurealtimeterstation pressurevisibilityair tempwater tempwave heightnotes
2019-Nov-12 15:45 336 2 gusting 11 6.0
2019-Nov-12 14:45 332 3 gusting 16 5.4
2019-Nov-12 13:45 315 3 gusting 10 5.5
2019-Nov-12 12:45 319 4 gusting 13 6.3
2019-Nov-12 11:45 329 3 gusting 12 8.6
2019-Nov-12 10:45 318 3 gusting 13 11.1
2019-Nov-12 09:45 305 5 gusting 15 14.6
2019-Nov-12 08:45 228 2 gusting 7 20.1
2019-Nov-12 07:45 231 1 gusting 4 21.1
2019-Nov-12 06:45 150 0 gusting 1 19.8
2019-Nov-12 05:45 18.3
2019-Nov-12 04:45 18.4
2019-Nov-12 03:45 18.8
2019-Nov-12 02:45 18.6
2019-Nov-12 01:45 290 0 gusting 1 19.0
2019-Nov-12 00:45 19.7
2019-Nov-11 23:45 290 21.0
2019-Nov-11 22:45 074 0 gusting 2 22.9
2019-Nov-11 21:45 107 0 gusting 2 23.9
2019-Nov-11 20:45 116 1 gusting 5 24.1
2019-Nov-11 19:45 141 0 gusting 1 23.3
2019-Nov-11 18:45 078 1 gusting 5 23.9
2019-Nov-11 17:45 112 1 gusting 5 24.2
2019-Nov-11 16:45 100 1 gusting 4 24.9
2019-Nov-11 15:45 061 1 gusting 4 21.3
2019-Nov-11 14:45 346 0 gusting 1 17.9
2019-Nov-11 13:45 028 0 gusting 2 13.7
2019-Nov-11 12:45 319 0 gusting 1 11.3
2019-Nov-11 11:45 270 0 gusting 0 11.2
2019-Nov-11 10:45 273 0 gusting 1 10.8
2019-Nov-11 09:45 282 0 gusting 0 10.5
2019-Nov-11 08:45 245 0 gusting 0 10.0
2019-Nov-11 07:45 9.8
2019-Nov-11 06:45 9.9
2019-Nov-11 05:45 10.2
2019-Nov-11 04:45 10.2
2019-Nov-11 03:45 11.0
2019-Nov-11 02:45 11.6
2019-Nov-11 01:45 12.5
2019-Nov-11 00:45 255 13.6
2019-Nov-10 23:45 15.0
2019-Nov-10 22:45 066 0 gusting 1 18.2
2019-Nov-10 21:45 080 1 gusting 7 20.2
2019-Nov-10 20:45 100 0 gusting 3 20.7
2019-Nov-10 19:45 193 0 gusting 2 20.6
2019-Nov-10 18:45 192 1 gusting 4 21.0
2019-Nov-10 17:45 123 1 gusting 5 21.3